Fayetteville, NC

5:04 PM EDT on April 23, 2017 (GMT -0400)
Fayetteville Regional-Grannis

Weather History for KFAY - October, 2013

Change the Weather History Date:

Wednesday, October 9, 2013

  Actual Average Record
Temperature  
Mean Temperature 62 °F 66 °F  
Max Temperature 67 °F 77 °F 94 °F (1939)
Min Temperature 57 °F 55 °F 35 °F (1987)
Degree Days  
Heating Degree Days 3 2  
Month to date heating degree days 6 15  
Since 1 July heating degree days 6 24  
Cooling Degree Days 0 3  
Month to date cooling degree days 61 34  
Year to date cooling degree days 1905 1942  
Growing Degree Days 12 (Base 50)    
Moisture  
Dew Point 54 °F    
Average Humidity 81    
Maximum Humidity 93    
Minimum Humidity 68    
Precipitation  
Precipitation 0.02 in 0.13 in 1.94 in (1976)
Month to date precipitation 0.36 1.37  
Year to date precipitation 35.99 37.20  
Sea Level Pressure  
Sea Level Pressure 30.08 in    
Wind  
Wind Speed 15 mph (North)    
Max Wind Speed 23 mph    
Max Gust Speed 31 mph    
Visibility 10 miles    
Events Rain    
T = Trace of Precipitation, MM = Missing Value Source: NWS Daily Summary

Daily Weather History Graph

Daily Weather History Graph

Search for Another Location

Airport or City:

Trip Planner

Search our weather history database for the weather conditions in past years. The results will help you decide how hot, cold, wet, or windy it might be!

Date:

Astronomy

Oct. 09, 2013 Rise Set
Actual Time 7:16 AM EDT 6:48 PM EDT
Civil Twilight 6:51 AM EDT 7:13 PM EDT
Nautical Twilight 6:22 AM EDT 7:42 PM EDT
Astronomical Twilight 5:52 AM EDT 8:12 PM EDT
Moon 12:01 PM EDT (10/9) 10:29 PM EDT (10/9)
Length of Visible Light 12h 22m
Length of Day
11h 31m
Waxing Crescent, 25% of the Moon is Illuminated
Oct 9
Waxing Crescent
Oct 11
First Quarter
Oct 18
Full
Oct 26
Last Quarter
Nov 3
New

Hourly Weather History & Observations

Time (EDT) Temp. Dew Point Humidity Pressure Visibility Wind Dir Wind Speed Gust Speed Precip Events Conditions
12:53 AM 59.0 °F 51.1 °F 75% 30.11 in 10.0 mi North 12.7 mph - N/A   Overcast
1:44 AM 59.0 °F 51.8 °F 77% 30.11 in 10.0 mi NNE 16.1 mph 25.3 mph N/A   Overcast
1:53 AM 59.0 °F 52.0 °F 78% 30.10 in 10.0 mi NNE 15.0 mph 23.0 mph N/A   Overcast
2:53 AM 59.0 °F 53.1 °F 81% 30.08 in 10.0 mi NNE 13.8 mph - N/A   Scattered Clouds
3:53 AM 59.0 °F 53.1 °F 81% 30.08 in 10.0 mi North 13.8 mph - N/A   Overcast
4:07 AM 59.0 °F 53.6 °F 82% 30.09 in 10.0 mi North 12.7 mph - N/A   Overcast
4:39 AM 59.0 °F 51.8 °F 77% 30.09 in 10.0 mi North 11.5 mph - N/A   Mostly Cloudy
4:53 AM 59.0 °F 52.0 °F 78% 30.08 in 10.0 mi North 15.0 mph - N/A   Mostly Cloudy
5:53 AM 59.0 °F 52.0 °F 78% 30.08 in 10.0 mi North 13.8 mph - N/A   Overcast
6:53 AM 59.0 °F 51.1 °F 75% 30.09 in 10.0 mi North 15.0 mph - N/A   Overcast
7:53 AM 59.0 °F 51.1 °F 75% 30.09 in 10.0 mi North 13.8 mph - N/A   Overcast
8:35 AM 60.8 °F 51.8 °F 72% 30.12 in 10.0 mi North 16.1 mph 23.0 mph N/A   Overcast
8:53 AM 60.1 °F 52.0 °F 75% 30.11 in 10.0 mi North 13.8 mph - N/A   Overcast
9:53 AM 62.1 °F 53.1 °F 72% 30.11 in 10.0 mi North 13.8 mph 20.7 mph N/A   Overcast
10:26 AM 62.6 °F 53.6 °F 72% 30.13 in 10.0 mi NNE 16.1 mph 25.3 mph N/A   Overcast
10:53 AM 63.0 °F 53.1 °F 70% 30.11 in 10.0 mi North 17.3 mph 24.2 mph N/A   Overcast
11:53 AM 63.0 °F 55.0 °F 75% 30.11 in 7.0 mi North 15.0 mph 29.9 mph N/A   Overcast
12:53 PM 63.0 °F 55.9 °F 78% 30.10 in 10.0 mi North 11.5 mph 20.7 mph 0.00 in   Overcast
1:15 PM 64.4 °F 55.4 °F 73% 30.11 in 10.0 mi North 15.0 mph - N/A   Overcast
1:53 PM 64.9 °F 55.0 °F 70% 30.08 in 10.0 mi North 13.8 mph 25.3 mph N/A   Overcast
2:53 PM 66.0 °F 55.9 °F 70% 30.07 in 10.0 mi North 17.3 mph - N/A   Overcast
3:53 PM 64.9 °F 55.0 °F 70% 30.06 in 10.0 mi North 17.3 mph 26.5 mph N/A   Overcast
4:53 PM 64.0 °F 55.0 °F 73% 30.06 in 10.0 mi North 15.0 mph 26.5 mph N/A   Overcast
5:53 PM 63.0 °F 55.0 °F 75% 30.06 in 10.0 mi North 15.0 mph 25.3 mph N/A   Overcast
6:53 PM 62.1 °F 54.0 °F 75% 30.06 in 10.0 mi North 16.1 mph 23.0 mph N/A   Overcast
7:53 PM 60.1 °F 54.0 °F 80% 30.06 in 9.0 mi North 17.3 mph 26.5 mph N/A   Overcast
8:37 PM 57.2 °F 55.4 °F 94% 30.07 in 5.0 mi NNW 15.0 mph - 0.02 in Rain Light Rain
8:53 PM 57.9 °F 55.9 °F 93% 30.06 in 6.0 mi North 18.4 mph 24.2 mph 0.02 in   Overcast
9:29 PM 57.2 °F 55.4 °F 94% 30.07 in 10.0 mi North 13.8 mph 23.0 mph N/A   Overcast
9:37 PM 57.2 °F 55.4 °F 94% 30.07 in 10.0 mi North 16.1 mph 24.2 mph N/A   Overcast
9:44 PM 57.2 °F 55.4 °F 94% 30.07 in 10.0 mi North 12.7 mph 24.2 mph N/A   Overcast
9:53 PM 57.9 °F 55.0 °F 90% 30.05 in 10.0 mi North 13.8 mph 23.0 mph N/A   Overcast
10:53 PM 57.9 °F 54.0 °F 87% 30.05 in 10.0 mi North 16.1 mph 21.9 mph N/A   Overcast
11:53 PM 57.9 °F 54.0 °F 87% 30.03 in 10.0 mi North 15.0 mph 21.9 mph N/A   Overcast